OpenBCM V1.08-5-g2f4a (Linux)

Packet Radio Mailbox

IZ3LSV

[San Dona' di P. JN]

 Login: GUEST





  
I0OJJ  > KEPS     07.12.25 12:01l 317 Lines 15151 Bytes #172 (0) @ AMSAT
BID : ORB25339.1
Read: GUEST
Subj: 2Line Orbital Elements 25339.AMSAT
Path: IZ3LSV<ED1ZAC<CX2SA<EA2RCF<I0OJJ
Sent: 251205/0021z @:I0OJJ.ITA.EU [Rome] obcm1.08-11-2-gbfe9
From: I0OJJ @ I0OJJ.ITA.EU (Gustavo)
To:   KEPS @ AMSAT
X-Info: This message was generated automatically


QST de W1STR

AMSAT Orbital Elements for Amateur Satellites in TLE Format
From Orbital Analysis Office
New England Sci-Tech STEM Education Center
Natick MA December 05, 2025
To all radio amateurs


These element sets describe the orbits of various satellites 
in use by the amateur radio community. For details see:
www.amsat.org/keplerian-elements-formats/

A daily update of element sets is available at:
www.amsat.org/tle/daily-bulletin.txt
or without bulletin text:
www.amsat.org/tle/dailytle.txt


AO-07
1 07530U 74089B   25338.60810927 -.00000030  00000-0  10223-3 0  9992
2 07530 101.9967 344.7903 0012327 141.9375 335.1952 12.53693986336131
UO-11
1 14781U 84021B   25338.80252383  .00003362  00000-0  35318-3 0  9995
2 14781  97.7798 301.9549 0009234 103.6780 256.5467 14.90100071228172
AO-27
1 22825U 93061C   25338.67730856  .00000302  00000-0  13201-3 0  9996
2 22825  98.7159  40.9251 0007593 316.2458  43.8122 14.30872272679181
FO-29
1 24278U 96046B   25338.63996830  .00000041  00000-0  80191-4 0  9991
2 24278  98.5467 208.8621 0348946 241.0356 115.5384 13.53262097446858
GO-32
1 25397U 98043D   25338.55827969  .00000181  00000-0  98436-4 0  9996
2 25397  98.9913 321.5819 0002213  70.8607 289.2810 14.24373417423625
ISS
1 25544U 98067A   25338.54339931  .00015910  00000-0  29318-3 0  9990
2 25544  51.6299 183.0583 0003596 202.7086 157.3744 15.49306035541580
NO-44
1 26931U 01043C   25338.49384291  .00000449  00000-0  19872-3 0  9997
2 26931  67.0519  27.8032 0007395 270.3916  89.6338 14.31848053262571
SO-50
1 27607U 02058C   25338.70986721  .00003883  00000-0  48082-3 0  9995
2 27607  64.5544  10.4166 0071824 298.0779  61.3077 14.82337715235627
CO-55
1 27844U 03031E   25337.94853152  .00000711  00000-0  32744-3 0  9991
2 27844  98.6765 343.9650 0010234  37.7288 322.4607 14.24167634163881
CO-57
1 27848U 03031J   25338.47310172  .00000603  00000-0  28451-3 0  9994
2 27848  98.6795 344.3515 0010363  53.1766 307.0362 14.23478181163674
RS-22
1 27939U 03042A   25338.83942919  .00003103  00000-0  49160-3 0  9995
2 27939  98.3360 152.8298 0011695 159.6546 311.2676 14.72935025186935
CO-58
1 28895U 05043F   25338.14792126  .00004105  00000-0  66328-3 0  9995
2 28895  98.2718 125.0809 0015415 103.6587 256.6337 14.71844968 73059
CO-65
1 32785U 08021C   25338.86996220  .00013838  00000-0  92926-3 0  9993
2 32785  97.8078 311.8475 0008805 340.6404  19.4487 15.06893649955909
CO-66
1 32791U 08021J   25338.50500130  .00038205  00000-0  15356-2 0  9998
2 32791  97.7432 323.3701 0001082 302.4577  57.6555 15.24823517957545
RS-30
1 32953U 08025A   25338.82369025  .00000007  00000-0 -20361-4 0  9997
2 32953  82.5011 116.3462 0019224  18.2631 341.9135 12.43171728795545
SRMSAT
1 37841U 11058D   25338.68132391  .00000548  00000-0  15376-3 0  9994
2 37841  19.9698 156.7245 0011717 224.0627 213.4569 14.11507205730306
ZACUBE-1
1 39417U 13066B   25338.84843992  .00011492  00000-0  93643-3 0  9993
2 39417  97.8067 295.3810 0041570 172.2439 187.9436 14.98968500651590
Delfi-N3xt
1 39428U 13066N   25338.69194837  .00017562  00000-0  16452-2 0  9991
2 39428  97.8343 254.6418 0080466 131.6054 229.2096 14.91636934645591
GOMX-1
1 39430U 13066Q   25338.86182227  .00005134  00000-0  78546-3 0  9998
2 39430  97.6595 186.4798 0130283 341.9664  17.6942 14.68525261641386
LO-74
1 39440U 13066AA  25338.82496009  .00011458  00000-0  11026-2 0  9996
2 39440  97.8698 282.5073 0058799 312.7234  46.9042 14.91836958647990
AO-73
1 39444U 13066AE  25338.81399712  .00017497  00000-0  11890-2 0  9990
2 39444  97.8052 301.9974 0040225 141.4220 218.9893 15.05756309650379
DTUSAT-2
1 40030U 14033W   25338.19668339  .00016835  00000-0  99568-3 0  9997
2 40030  98.0743 319.1841 0008457 166.1734 193.9728 15.11510902623194
EO-80
1 40032U 14033Y   25338.40637354  .00019321  00000-0  11388-2 0  9992
2 40032  98.0629 318.8104 0009726 111.9216 248.3047 15.11593495623209
LILACSAT-2
1 40908U 15049K   25338.83228902  .00027474  00000-0  59555-3 0  9991
2 40908  97.4915   3.9733 0006473 229.9506 130.1174 15.44369878565688
IO-86
1 40931U 15052B   25151.18580175  .00001241  00000-0  78118-4 0  9996
2 40931   6.0006  24.0987 0012733 338.8432  21.1169 14.78805930523159
Horyu-4
1 41340U 16012D   25338.44126720  .00091326  00000-0  15812-2 0  9999
2 41340  30.9955   6.9108 0006543 152.8862 207.2129 15.49509567540260
Lapan A3
1 41603U 16040E   25338.85428230  .00007464  00000-0  24773-3 0  9995
2 41603  97.1420 336.6982 0010657   3.0929 357.0377 15.31455925525057
CAS-2T
1 41847U 16066G   25338.79394535  .00001946  00000-0  28311-3 0  9997
2 41847  98.4047  51.6115 0343865 359.2475   0.8156 14.44103471476737
TechnoSat
1 42829U 17042E   25338.67476602  .00008948  00000-0  66108-3 0  9991
2 42829  97.4016 139.2291 0018798  39.3793 320.8796 15.03304792457463
AO-91
1 43017U 17073E   25338.61965816  .00022240  00000-0  10548-2 0  9996
2 43017  97.4955 205.0006 0160004 278.6133  79.6996 15.08594182436013
S-Net D
1 43186U 18014G   25338.69225969  .00014545  00000-0  79886-3 0  9995
2 43186  97.5491 239.8455 0008266 343.5968  16.4995 15.14194984429303
S-Net B
1 43187U 18014H   25338.70018781  .00013543  00000-0  74459-3 0  9998
2 43187  97.5497 239.8331 0008743 338.3527  21.7334 15.14171310429300
S-Net A
1 43188U 18014J   25338.69200193  .00014226  00000-0  78130-3 0  9996
2 43188  97.5502 240.0002 0008659 338.7153  21.3717 15.14200450429301
S-Net C
1 43189U 18014K   25338.70312748  .00013782  00000-0  75760-3 0  9991
2 43189  97.5521 240.0552 0009811 329.8548  30.2118 15.14166649427856
Ten-Koh
1 43677U 18084G   25338.44964900  .00007250  00000-0  56142-3 0  9990
2 43677  98.0725 157.7342 0009372  46.4193 313.7806 15.01733240386929
PO-101
1 43678U 18084H   25338.84415708  .00005391  00000-0  44558-3 0  9994
2 43678  98.1018 161.9899 0007437  65.3653 294.8343 14.99372042387089
QO-100
1 43700U 18090A   25338.57704175  .00000159  00000-0  00000+0 0  9993
2 43700   0.0177  13.7086 0001547 252.5823  40.8941  1.00272932 25728
MinXSS-2
1 43758U 18099A   25338.66771720  .00053645  00000-0  16265-2 0  9996
2 43758  97.4818  45.9265 0008856 242.7333 117.3008 15.33908969384185
AO-95
1 43770U 18099N   25338.63912022  .00026450  00000-0  11713-2 0  9996
2 43770  97.4692  34.9836 0008688 318.0636  41.9933 15.21587819383583
SNUSat 2
1 43782U 18099AA  25338.68350080  .00020652  00000-0  10144-2 0  9999
2 43782  97.4369  30.2294 0009685 253.8425 106.1743 15.18047615383487
SnugLite
1 43784U 18099AC  25338.69407956  .00027095  00000-0  11871-2 0  9993
2 43784  97.4183  30.2586 0001797 241.3676 118.7379 15.21977178383689
ITASat 1
1 43786U 18099AE  25338.64519832  .00016795  00000-0  87799-3 0  9995
2 43786  97.4338  29.1266 0012329 314.7133  45.3095 15.15878164383409
EAGLET 1
1 43790U 18099AJ  25338.69209902  .00011876  00000-0  71360-3 0  9991
2 43790  97.4536  28.4370 0010267 301.2237  58.7987 15.10990487382941
ESEO
1 43792U 18099AL  25338.69505751  .00003627  00000-0  27051-3 0  9997
2 43792  97.4246  19.2097 0010315 278.7321  81.2736 15.03432261382576
JO-97
1 43803U 18099AX  25338.68803383  .00034644  00000-0  13265-2 0  9995
2 43803  97.4433  36.5322 0005427 234.4486 125.6247 15.26453762383888
Suomi 100
1 43804U 18099AY  25338.83781255  .00027259  00000-0  11577-2 0  9994
2 43804  97.4499  35.3616 0009854 242.3410 117.6827 15.22995610383780
ISAT
1 43879U 18111D   25338.68700690  .00073269  00000-0  17667-2 0  9996
2 43879  97.5913 258.0675 0004064 305.3462  54.7404 15.40954580381004
UWE-4
1 43880U 18111E   25338.67573815  .00048642  00000-0  14803-2 0  9990
2 43880  97.5859 254.9797 0008335 314.9318  45.1247 15.33820382380840
Sparrow
1 43881U 18111F   25338.03471437  .00077126  00000-0  17356-2 0  9993
2 43881  97.6092 261.0929 0004963   4.5365 355.5926 15.43012692381025
Prox-1
1 44339U 19036A   25338.64454132  .00029631  00000-0  33626-2 0  9995
2 44339  23.9976 328.3709 0006163 306.3816  53.6114 14.84870454344462
Taurus 1
1 44530U 19059C   25338.87034936  .00018935  00000-0  32330-2 0  9990
2 44530  98.6224 127.2912 0009109 198.5095 161.5778 14.68945364330088
Duchifat 3
1 44854U 19089C   25337.20011490  .01105376  61298-3  19590-2 0  9997
2 44854  36.9264 289.0060 0011659 216.1192 143.8795 16.00863037330610
TO-108
1 44881U 19093C   25338.89001343  .00002505  00000-0  29176-3 0  9996
2 44881  97.7772  50.6971 0013886  12.1349 348.0199 14.86075554322556
FloripaSat 1
1 44885U 19093G   25338.84515906  .00015405  00000-0  12050-2 0  9995
2 44885  97.8062  67.0017 0011192   2.4142 357.7134 15.01101947323468
RS-44
1 44909U 19096E   25338.80503794  .00000011  00000-0  60937-5 0  9990
2 44909  82.5199 108.8810 0216826 238.7142 119.2566 12.79745697277485
SALSAT
1 46495U 20068K   25338.53295068  .00018017  00000-0  69979-3 0  9993
2 46495  97.8771 325.3642 0008629 264.1666  95.8588 15.26106473285632
CSS (TIANHE-1)
1 48274U 21035A   25338.70672406  .00037602  00000-0  47642-3 0  9993
2 48274  41.4682  65.4569 0009962 328.9288  31.0960 15.58675278262770
TUBIN
1 48900U 21059X   25338.82607745  .00770068  29521-3  12175-2 0  9996
2 48900  97.6680 166.0425 0003637 281.1475  78.9395 16.03890899248053
CUTE
1 49263U 21088D   25338.81218890  .00045819  00000-0  61168-3 0  9993
2 49263  97.4365  61.3102 0004497 306.8254  53.2588 15.57943785232063
TeikyoSat 4
1 49396U 21102B   25338.64275002  .00005496  00000-0  35498-3 0  9990
2 49396  97.3905  10.5467 0010919 239.0658 120.9498 15.08585080223383
Z-Sat
1 49399U 21102E   25338.85851348  .00011366  00000-0  58737-3 0  9993
2 49399  97.3589  15.0395 0016672 200.1159 159.9419 15.16318317223977
